Home > Weather > Moncton > Past weeks

Flag for Canada Weather for the Past 2 Weeks in Moncton, New Brunswick, Canada

Now
39 °F

Drizzle. Fog.


Feels Like: 30 °F
Forecast: 37 / 42 °F
Wind: 18 mph from Northeast

Location: Moncton

Current Time: May 5, 2016 at 3:53:58 PM

Latest Report: May 5, 2016 at 3:00 PM


Visibility: 1 mi

Pressure: 29.90 "Hg

Humidity: 100%

Dew Point: 39 °F

Location of MonctonLocation

Historic Weather in Moncton — Graph

°F

Moncton Temperature Yesterday

Maximum temperature yesterday: 45 °F (at 4:00 PM)
Minimum temperature yesterday: 36 °F (at 12:00 AM)
Average temperature yesterday: 40 °F

High & Low Weather Summary for the Past Weeks

 TemperatureHumidityPressure
High70 °F (Apr 21, 3:00 PM)100% (Apr 23, 10:00 PM)30.28 "Hg (Apr 23, 10:00 PM)
Low23 °F (Apr 26, 4:00 AM)17% (Apr 24, 6:00 PM)29.69 "Hg (Apr 21, 5:00 PM)
Average42 °F58%29.94 "Hg
* Reported Apr 20 2:00 PM — May 5 2:00 PM, Moncton, Weather by CustomWeather, © 2016

Note: Actual official high and low records may vary slightly from our data, if they occured in-between our weather recording intervals... More about our weather records

Advertising

Moncton Weather History for the Previous 24 Hours

Scroll right to see more
 ConditionsComfort  
Time TempWeatherWind HumidityBarometerVisibility
2:00 PM
Thu, May 5
39 °FDrizzle. Fog.16 mph100%29.89 "Hg15 mi
1:00 PM39 °FDrizzle. Fog.16 mph100%29.91 "Hg2 mi
12:00 PM39 °FDrizzle. Fog.16 mph100%29.90 "Hg2 mi
11:46 AM39 °FDrizzle. Fog.17 mph100%29.92 "Hg2 mi
11:00 AM39 °FLight rain. Fog.15 mph93%29.94 "Hg2 mi
10:00 AM39 °FLight rain. Fog.14 mph93%29.94 "Hg5 mi
9:48 AM39 °FLight rain. Fog.16 mph93%29.93 "Hg4 mi
9:00 AM39 °FLight rain. Fog.15 mph93%29.93 "Hg2 mi
8:00 AM37 °FLight rain. Mostly cloudy.12 mph100%29.95 "Hg10 mi
7:00 AM37 °FLight rain. Mostly cloudy.17 mph93%29.93 "Hg8 mi
6:00 AM37 °FLight rain. Mostly cloudy.9 mph100%29.97 "Hg10 mi
5:46 AM37 °FLight rain. Mostly cloudy.9 mph93%29.96 "Hg10 mi
5:00 AM37 °FSprinkles. Overcast.14 mph93%29.93 "Hg7 mi
4:00 AM37 °FSprinkles. Overcast.10 mph93%29.96 "Hg8 mi
3:00 AM37 °FSprinkles. Overcast.10 mph93%29.96 "Hg15 mi
2:56 AM37 °FSprinkles. Overcast.10 mph93%29.96 "Hg15 mi
2:00 AM39 °FOvercast.7 mph81%30.00 "Hg15 mi
1:00 AM39 °FMostly cloudy.8 mph87%30.00 "Hg15 mi
12:00 AM39 °FOvercast.7 mph87%29.99 "Hg15 mi
11:00 PM
Wed, May 4
39 °FOvercast.9 mph87%30.01 "Hg15 mi
10:00 PM39 °FOvercast.7 mph81%30.03 "Hg15 mi
9:00 PM41 °FOvercast.7 mph76%30.02 "Hg15 mi
8:00 PM41 °FPartly sunny.10 mph81%30.02 "Hg15 mi
7:00 PM43 °FPartly sunny.7 mph76%30.00 "Hg15 mi
6:00 PM43 °FPartly sunny.12 mph76%29.98 "Hg15 mi
5:00 PM45 °FOvercast.9 mph71%29.99 "Hg15 mi
4:00 PM45 °FOvercast.9 mph71%29.99 "Hg15 mi
3:00 PM43 °FOvercast.7 mph76%30.00 "Hg15 mi
Weather by CustomWeather, © 2016

See weather overviewHow to use our weather pages